Regional Weather Roundup
Issued by NWS Portland, ME

Home | Current Version | Previous Version | Text Only | Print | Product List | Glossary On
Versions: 1 2 3 4 5 6 7 8 9 10 11 12 13 14 15 16 17 18 19 20 21 22 23 24 25 26 27 28 29 30 31 32 33 34 35 36 37 38 39 40 41 42 43 44 45 46 47 48 49 50
000
ASUS41 KGYX 280205
RWRGYX
WEATHER ROUNDUP FOR MAINE AND NEW HAMPSHIRE
NATIONAL WEATHER SERVICE GRAY ME
1000 PM EDT FRI MAR 27 2015

MEZ002-005-006-010-012-015-018-020-021-024-026-027-029-280300-
MAINE

CITY           SKY/WX    TMP DP  RH WIND       PRES   REMARKS
PORTLAND       CLOUDY    40  35  83 NW3       29.76R
SANFORD        CLOUDY    34  30  86 CALM      29.75R
BAR HARBOR     MOCLDY    36  32  87 CALM      29.74S
WISCASSET      CLOUDY    36  33  89 CALM      29.76F
ROCKLAND       CLOUDY    37  34  87 N3        29.75R
FRYEBURG       CLOUDY    38  28  67 N8        29.75F
LEWISTONAUBURN CLOUDY    39  27  60 N5        29.75S
AUGUSTA        CLOUDY    37  27  67 N7        29.76R
WATERVILLE     CLOUDY    37  25  60 N7        29.73F
BANGOR         MOCLDY    37  25  61 NW5       29.75R
GREENVILLE       N/A     30  19  63 N5        29.72R
MILLINOCKET    MOCLDY    36  22  56 NW6       29.77R
HOULTON        PTCLDY    29  21  72 N7        29.74R
PRESQUE ISLE   CLEAR     28  12  50 N6        29.77S
FRENCHVILLE    CLEAR     24  11  57 N15       29.77R WCI  11
CARIBOU        CLEAR     28  14  55 N10       29.76R WCI  19
$$

NHZ002-005-008-009-011-012-014-280300-
NEW HAMPSHIRE

CITY           SKY/WX    TMP DP  RH WIND       PRES   REMARKS
PORTSMOUTH     CLOUDY    36  35  95 W2        29.72F
ROCHESTER      CLOUDY    36  34  92 CALM      29.73S
NASHUA         MOCLDY    35  34  96 NW5       29.76R
MANCHESTER     MOCLDY    37  36  96 CALM      29.73S
CONCORD        MOCLDY    39  27  62 N3        29.75S
LACONIA        CLOUDY    36  28  75 CALM      29.72F
PLYMOUTH       CLOUDY    37  33  88 W6        29.74F
BERLIN         CLOUDY    33  26  75 N5        29.76R
WHITEFIELD     CLOUDY    33  28  81 NW3       29.77S
JAFFREY        CLOUDY    31  28  89 CALM      29.73R
KEENE          MOCLDY    34  28  80 CALM      29.76S
LEBANON        CLOUDY    36  30  79 N6        29.77S
MT WASHINGTON  LGT SNOW  14  10  85 W16         N/A  FOG     WCI  -2
$$

VTZ005-007-008-280300-
VERMONT

CITY           SKY/WX    TMP DP  RH WIND       PRES   REMARKS
ST JOHNSBURY     N/A     33  26  75 MISG      29.79R
MONTPELIER     CLOUDY    30  26  85 N5        29.82R
BURLINGTON     CLOUDY    31  24  75 N10       29.85
$$

MAZ007-012-024-CTZ003-RIZ002-NYZ038-NYZ072-280300-
SOUTHERN NEW ENGLAND AND NY

CITY           SKY/WX    TMP DP  RH WIND       PRES   REMARKS
BOSTON         CLOUDY    38  35  89 SW5       29.76R
WORCESTER      CLOUDY    37  31  78 W6        29.73R
NANTUCKET      CLOUDY    38  36  92 N10       29.73R
PROVIDENCE     CLOUDY    40  37  89 W3        29.77R
HARTFORD       MOCLDY    40  28  62 CALM      29.77R
ALBANY         FLURRIES  36  22  56 NW12G25   29.83R
NEW YORK CITY  CLOUDY    43  28  55 N6        29.78R
$$

ANZ081-ANZ082-ANZ150-NHZ014-MEZ023>029-280300-
COASTAL MARINE OBSERVATIONS

STATION/POSITION TIME  TEMP    WIND        PRES    WAVE
                       AIR SEA DIR/SP/G            HT/PER
                 (UTC) (F)     (DEG/KT/KT) (MB)    (FT/S)
MOUNT DESERT ROC 0200   38                 1006.9R
MATINICUS ROCK   0100   38     270/ 11/ 12 1007.3R
WELLS            0100   39      CALM  /  2 1006.4R
ISLE OF SHOALS   0100   40     280/  5/  5 1006.3R
JEFFREYS LEDGE   0121      40                N/A     5/10
CASHES LEDGE BUO 0150   39 39              1006.5F   6/10
$$

.............KEY..............
   WCI - WIND CHILL
   TC  - TEMPERATURE IN CELSIUS
   VSB - VISIBILITY IN MILES
   HX  - HEAT INDEX
   FAIR- INDICATES FEW OR NO CLOUDS BELOW 12,000 FT, WITH NO
         SIGNIFICANT WEATHER AND/OR OBSTRUCTIONS TO VISIBILITY.





USA.gov is the U.S. government's official web portal to all federal, state and local government web resources and services.